Location: Zapote
(9.9191°N, 84.0597°W)
Time: 17:31:13
(UTC-06:00)

Transit 2A - Pass Details

Date: 03 March 2021
Orbit: 602 x 957 km, 66.7° (Epoch: 16 April)

Event Time Altitude Azimuth Distance (km) Brightness Sun altitude
Rises 16:46:54 0° 201° (SSW) 3,560 9.9 13.8°
Reaches altitude 10° 16:49:31 10° 201° (SSW) 2,581 9.2 13.2°
Maximum altitude 16:55:32 86° 290° (WNW) 856 6.6 11.7°
Drops below altitude 10° 17:01:00 10° 19° (NNE) 2,355 8.3 10.4°
Sets 17:03:17 0° 20° (NNE) 3,228 9.0 9.8°
